Погода в Кыре

Погода в Кыре : погода сейчас, прогноз погоды и архив. Всё, что Вы хотите узнать о погоде в Кыре!

Хотите узнать прогноз погоды в Кыре? Тогда Вам сюда: Погода в Кыре

Поиск расширенной информации на нашем сайте:

Другие новости

Новости СМИ2

Главная страница сайта

Новости сайта

02.10.2013

Напоминаем, что на нашем новом сайте вы можете получить высокодетализированные прогнозы погоды по пунктам России, СНГ и мира (включающие важные для авиации метеовеличины, такие как направление и скорость ветра, видимость, явления погоды, количество и форма облачности, нижняя и верхняя граница облачности), а также ознакомиться с разнообразными материалами по авиационной метеорологии и подборкой полезных ссылок на эту тему.

Сайт Метеоцентр.Азия посвящён разработке технологий оптимизации авиаметеорологического обслуживания, включая проектирование и перспективное создание нескольких автоматизированных авиаметеорологических систем:
- система выпуска высокодетальных прогностических карт явлений погоды для нижнего воздушного пространства по России и ближнему зарубежью;
- система верификации прогнозов TAF (выпускаемых синоптиками официальных АМСГ РФ и ближнего зарубежья) и AUTOTAF (выпускаемых сайтом Метеоцентр.Азия) - выявление ошибок, онлайн-сопоставление с фактической погодой METAR, автоматическое внесение коррективов в прогнозы при резком отклонении фактической погоды от прогноза, подсчёт оправдываемости прогнозов по элементам и в целом;
- система обработки, анализа и отображения авиаметеорологической информации для применения провайдерами метеорологической информации.


Погода в Кыре - сегодня

Время (UTC), дата Ветер
(°,м/с) 
Видим.   Явления Облачность Т
(°С)
Тd
(°С)
f(%) Тe
(°С)
Pmin
(гПа)
dP
(гПа)
Po
(мм)
O2
(г/м3)
Тmin Tmax R s Состояние
почвы
15 24.06.17 010 (С) 20000 м    6/3 1000 м средняя, верхняя 
[Sc|Ac trans|Ci fib]
+18.3 +6.2 45 +19  1005.9  0.9  679  255           
18 24.06.17 тихо ()   20000 м    8/3 1000 м средняя, верхняя 
[Sc|Ac trans|Ci fib]
+13.2 +5.6 60 +13  1006.5  0.7  680  260           
21 24.06.17 тихо ()   20000 м    8/3 1000 м средняя, верхняя 
[Sc|Ac trans|Ci fib]
+10 +5.6 74 +10  1010.1  0.3  680  263           
00 25.06.17 320 (СЗ) 20000 м    6/0 средняя, верхняя 
[Ac trans|Ci fib]
+16.2 +8 58 +18  1007.7  680  257  +9.5        сухая 
03 25.06.17 300 (СЗ) 20000 м    6/0 верхняя 
[Cs]
+27.7 +6.8 27 +28  1002.3  -1.3  679  247  +9.5         
06 25.06.17 190 (Ю) 20000 м    8/3 1000 м кучево-дожд., средняя, верхняя 
[Cb cap|Ac lent|Cs]
+33.5 +2.2 14 +34  998.3  -2  678  243           
09 25.06.17 090 (В) 20000 м    8/4 1000 м кучево-дожд., средняя, верхняя 
[Cb cap|Ac trans|Ci fib]
+34.3 +1.2 12 +34  996.6  -1.4  677  242           
12 25.06.17 100 (В) 20000 м    8/3 1000 м средняя, верхняя 
[Sc diur, vesp|Ac trans|Ci fib]
+30.4 +1 15 +30  998.3  0.4  677  245    +35.1       
15 25.06.17 030 (СВ) 20000 м    8/3 1000 м средняя, верхняя 
[Sc|Ac trans|Ci fib]
+22.9 +5.7 33 +23  1001.8  678  251           
18 25.06.17 тихо ()   20000 м    6/3 1000 м средняя, верхняя 
[Sc|Ac trans|Ci fib]
+16.4 +6.5 52 +16  1004.4  0.3  678  256           
21 25.06.17 тихо ()   20000 м    6/3 1000 м средняя, верхняя 
[Sc|Ac trans|Ci fib]
+11.5 +5.9 68 +12  1006.6  0.4  678  261           
00 26.06.17 230 (ЮЗ) 20000 м    8/0 средняя, верхняя 
[Ac trans|Ci fib]
+18 +7.9 52 +19  1003.9  -0.2  678  255  +11.4        сухая 
03 26.06.17 360 (С) 20000 м  дым  10/0 средняя, верхняя 
[Ac trans|Cs]
+28.4 +5.6 23 +28  999.1  -1.2  677  246           
06 26.06.17 130 (ЮВ) 20000 м  дым  10/3 1000 м верхняя 
[Cu med, cong|Cs]
+34.9 +1.5 12 +35  994.7  -2.1  675  241           
09 26.06.17 210 (ЮЗ) 20000 м  дым  9/3 1000 м кучево-дожд., средняя, верхняя 
[Cb cap|Ac trans|Ci]
+36.1 +1.5 11 +36  992.8  -1.4             
12 26.06.17 170 (Ю) 20000 м  дым  9/4 1000 м кучево-дожд., средняя, верхняя 
[Cb cap|Ac trans|Ci]
+31 +4.6 19 +31  995.3  0.9  675  243    +36.4       
15 26.06.17 тихо ()   20000 м  дым  8/3 1000 м средняя, верхняя 
[Sc|Ac trans|Ci]
+20.8 +6.8 40 +21  999.8  676  252           
18 26.06.17 030 (СВ) 20000 м  дым  3/0 верхняя 
[Ci fib]
+16.8 +6.7 51 +18  1001.9  0.5  676  255           
21 26.06.17 310 (СЗ) 20000 м  дым  10/0 средняя, верхняя 
[Ac trans|Cs]
+13.1 +7 66 +14  1004.2  0.8  677  259           
00 27.06.17 300 (СЗ) 20000 м  дым  10/0 верхняя 
[Cs]
+20.4 +8.2 45 +21  1002.1  0.5  677  252  +12.8        сухая 
03 27.06.17 080 (В) 20000 м  дым  8/0 средняя, верхняя 
[Ac trans|Ci fib]
+31.5 +8.3 24 +32  997.6  -0.7  677  243           
06 27.06.17 340 (С) 20000 м  дым  8/3 1000 м верхняя 
[Cu med, cong|Ci fib]
+34.2 +6.7 18 +34  995.8  -0.9  676  241           
09 27.06.17 320 (СЗ) 20000 м  дым  6/4 1000 м верхняя 
[Cu med, cong|Ci fib]
+34.6 +5.4 16 +35  995.5  -0.2  676  241           
12 27.06.17 100 (В) 20000 м  дым  6/3 1000 м средняя, верхняя 
[Cu med, cong|Ac trans|Ci fib]
+29.2 +7.9 26 +30  998.5  1.2  677  245    +35       
15 27.06.17 030 (СВ) 20000 м  дым  6/0 средняя, верхняя 
[Ac trans|Ci fib]
+23 +8.8 40 +25  1001.6  0.9  678  250           
Время (UTC), дата Ветер
(°,м/с) 
Видим.   Явления Облачность Т
(°С)
Тd
(°С)
f(%) Тe
(°С)
Pmin
(гПа)
dP
(гПа)
Po
(мм)
O2
(г/м3)
Тmin Tmax R s Состояние
почвы

Для получения пояснительной информации подведите курсор к названию столбца.

ПОГОДА в Кыре - архив

Всё, что Вы хотите узнать о погоде в Кыре - удобно и подробно!

Выберите нужную дату (начиная с 1 января 2015* года) и нажмите кнопку "Найти".
Будут отображены архивные сводки погоды по пункту Кыра, начиная с указанной даты.


Отображать данные в формате CSV (для использования в таблицах Excel)


Внимание! Наш архив погоды предназначен исключительно для личного некоммерческого использования в познавательных целях. Если Вам необходимы официальные справки о состоянии погоды (для производственных, юридических, коммерческих и т.п. целей), обращайтесь в органы Росгидромета.

*Примечание: данная дата относится к архиву по метеостанциям СССР (Россия, СНГ, Балтия).
Архив по метеостанциям Зарубежной Европы и Азии (кроме Китая) хранится 10 дней, по другим регионам земного шара (Китай, Африка, Америка, Австралия, Океания) - 1 день.

Кыра - район местоположения метеостанции


Название, широта, долгота, высота метеостанции:
Кыра 49.6°ш. 112°д. 908 м над ур. моря [Российская Федерация]

Дополнительная информация

В oтличие oт бoльшинства пoгoдных сайтoв мы публикуем пoдрoбную метеoинфoрмацию в детальнoм прoфессиoнальнoм фoрмате.

Характеристики температуры и влажнoсти вoздуха измеряются на высoте 2 м в тени вдали oт зданий и деревьев.
Скoрoсть ветра измеряется на высoте 10 м (на урoвне рoста челoвека скoрoсть ветра ниже в 1.5-2 раза). Если метеoстанция нахoдится в гoрoде или в лесу, тo скoрoсть ветра занижена на 2-4 м/с пo сравнению с oткрытым местoм. Скoрoсть ветра над акватoриями крупных рек и oзёр, а также на вершинах хoлмoв на 2-5 м/с выше, чем в oбычных услoвиях.
Атмoсфернoе давление в разных тoчках местнoсти мoжет значительнo oтличаться oт давления на метеoстанции, в зависимoсти oт услoвий рельефа (при пoдъёме на 10 м давление пoнижается примернo на 1 мм рт.ст.).